When you browse on this site, cookies collect data to enhance your experience and personalize the content and advertising you see.
Visit our Privacy Policy to learn more. By continuing to use the site, you agree to this use of cookies and data.
  • în România
  • Lista ţărilor
  • Pe 7 zile
  • Temperatura apei
  • Hartă satelitară
  • Meteo pe hartă
  • Widget-uri
  • user-avatar
    Intrare

    Meteo pe oră la Aspach

    Astăzi, 16 Iulie, Marţi

    Timp Temperatura Precipitaţii Vânt Presiune Umiditate
    00:00 +13°C° 0 mm 1 m/s 734 mmHg 87%
    01:00 +13°C° 0 mm 1 m/s 734 mmHg 91%
    02:00 +12°C° 0 mm 1 m/s 734 mmHg 91%
    03:00 +11°C° 0 mm 0 m/s 734 mmHg 92%
    04:00 +10°C° 0 mm 0 m/s 734 mmHg 92%
    05:00 +12°C° 0 mm 0 m/s 734 mmHg 89%
    06:00 +13°C° 0 mm 0 m/s 734 mmHg 86%
    07:00 +14°C° 0 mm 0 m/s 735 mmHg 80%
    08:00 +16°C° 0 mm 1 m/s 735 mmHg 73%
    09:00 +19°C° 0 mm 1 m/s 735 mmHg 67%
    10:00 +20°C° 0 mm 2 m/s 735 mmHg 60%
    11:00 +21°C° 0 mm 2 m/s 734 mmHg 56%
    12:00 +23°C° 0 mm 2 m/s 734 mmHg 51%
    13:00 +24°C° 0 mm 2 m/s 734 mmHg 47%
    14:00 +24°C° 0 mm 2 m/s 734 mmHg 46%
    15:00 +25°C° 0 mm 2 m/s 734 mmHg 44%
    16:00 +25°C° 0 mm 1 m/s 733 mmHg 43%
    17:00 +24°C° 0 mm 1 m/s 733 mmHg 49%
    18:00 +23°C° 0 mm 1 m/s 733 mmHg 54%
    19:00 +22°C° 0 mm 1 m/s 733 mmHg 60%
    20:00 +21°C° 0 mm 1 m/s 733 mmHg 64%
    21:00 +19°C° 0 mm 1 m/s 733 mmHg 68%
    22:00 +16°C° 0 mm 1 m/s 734 mmHg 73%
    23:00 +16°C° 0 mm 1 m/s 733 mmHg 74%

    Mâine, 17 Iulie, Miercuri

    Timp Temperatura Precipitaţii Vânt Presiune Umiditate
    00:00 +15°C° 0 mm 1 m/s 733 mmHg 75%
    01:00 +15°C° 0 mm 1 m/s 733 mmHg 77%
    02:00 +15°C° 0 mm 1 m/s 733 mmHg 78%
    03:00 +13°C° 0 mm 0 m/s 733 mmHg 80%
    04:00 +13°C° 0 mm 0 m/s 732 mmHg 81%
    05:00 +14°C° 0 mm 0 m/s 732 mmHg 78%
    06:00 +15°C° 0 mm 0 m/s 732 mmHg 74%
    07:00 +16°C° 0 mm 0 m/s 732 mmHg 71%
    08:00 +18°C° 0 mm 0 m/s 732 mmHg 65%
    09:00 +20°C° 0 mm 0 m/s 732 mmHg 59%
    10:00 +22°C° 0 mm 0 m/s 732 mmHg 53%
    11:00 +25°C° 0 mm 1 m/s 732 mmHg 50%
    12:00 +26°C° 0 mm 1 m/s 732 mmHg 48%
    13:00 +27°C° 0 mm 2 m/s 732 mmHg 46%
    14:00 +27°C° 0 mm 2 m/s 732 mmHg 45%
    15:00 +27°C° 0 mm 2 m/s 732 mmHg 44%
    16:00 +27°C° 0 mm 2 m/s 732 mmHg 43%
    17:00 +26°C° 0 mm 2 m/s 731 mmHg 49%
    18:00 +25°C° 0 mm 1 m/s 731 mmHg 55%
    19:00 +24°C° 0 mm 1 m/s 731 mmHg 61%
    20:00 +22°C° 0 mm 1 m/s 731 mmHg 66%
    21:00 +20°C° 0 mm 1 m/s 731 mmHg 71%
    22:00 +19°C° 0 mm 1 m/s 732 mmHg 75%
    23:00 +18°C° 0 mm 1 m/s 731 mmHg 77%

    Poimâine, 18 Iulie, Joi

    Timp Temperatura Precipitaţii Vânt Presiune Umiditate
    00:00 +16°C° 0 mm 1 m/s 731 mmHg 80%
    01:00 +16°C° 0 mm 1 m/s 731 mmHg 82%
    02:00 +16°C° 0 mm 1 m/s 731 mmHg 82%
    03:00 +15°C° 0 mm 0 m/s 731 mmHg 81%
    04:00 +14°C° 0 mm 0 m/s 731 mmHg 81%
    05:00 +15°C° 0 mm 0 m/s 731 mmHg 78%
    06:00 +16°C° 0 mm 0 m/s 731 mmHg 75%
    07:00 +17°C° 0 mm 0 m/s 731 mmHg 72%
    08:00 +21°C° 0 mm 1 m/s 731 mmHg 67%
    09:00 +22°C° 0 mm 1 m/s 731 mmHg 62%
    10:00 +24°C° 0 mm 2 m/s 731 mmHg 58%
    11:00 +24°C° 0.1 mm 2 m/s 731 mmHg 54%
    12:00 +25°C° 0.1 mm 3 m/s 731 mmHg 51%
    13:00 +26°C° 0.1 mm 3 m/s 730 mmHg 48%
    14:00 +26°C° 0.2 mm 3 m/s 730 mmHg 48%
    15:00 +26°C° 0.2 mm 2 m/s 730 mmHg 47%
    16:00 +27°C° 0.2 mm 2 m/s 730 mmHg 46%
    17:00 +26°C° 0.1 mm 2 m/s 730 mmHg 52%
    18:00 +24°C° 0.1 mm 2 m/s 730 mmHg 58%
    19:00 +23°C° 0.1 mm 2 m/s 730 mmHg 64%
    20:00 +21°C° 0.2 mm 2 m/s 731 mmHg 68%
    21:00 +20°C° 0.2 mm 2 m/s 731 mmHg 72%
    22:00 +19°C° 0.2 mm 2 m/s 731 mmHg 76%
    23:00 +18°C° 0.4 mm 2 m/s 731 mmHg 80%

    19 Iulie, Vineri

    Timp Temperatura Precipitaţii Vânt Presiune Umiditate
    00:00 +18°C° 0.4 mm 2 m/s 731 mmHg 83%
    01:00 +17°C° 0.4 mm 2 m/s 731 mmHg 87%
    02:00 +17°C° 0.8 mm 2 m/s 732 mmHg 89%
    03:00 +18°C° 0.8 mm 1 m/s 732 mmHg 90%
    04:00 +16°C° 0.8 mm 1 m/s 732 mmHg 92%
    05:00 +18°C° 0 mm 1 m/s 732 mmHg 90%
    06:00 +19°C° 0 mm 1 m/s 732 mmHg 88%
    07:00 +19°C° 0 mm 1 m/s 732 mmHg 86%
    08:00 +21°C° 0.5 mm 1 m/s 732 mmHg 81%
    09:00 +22°C° 0.5 mm 1 m/s 733 mmHg 77%
    10:00 +23°C° 0.5 mm 2 m/s 733 mmHg 72%
    11:00 +24°C° 0.4 mm 2 m/s 733 mmHg 66%
    12:00 +25°C° 0.4 mm 2 m/s 732 mmHg 61%
    13:00 +26°C° 0.4 mm 2 m/s 732 mmHg 55%
    14:00 +26°C° 0.1 mm 2 m/s 732 mmHg 54%
    15:00 +27°C° 0.1 mm 2 m/s 732 mmHg 52%
    16:00 +27°C° 0.1 mm 2 m/s 732 mmHg 50%
    17:00 +26°C° 0.1 mm 2 m/s 732 mmHg 57%
    18:00 +25°C° 0.1 mm 1 m/s 732 mmHg 63%
    19:00 +24°C° 0.1 mm 1 m/s 732 mmHg 70%
    20:00 +23°C° 0 mm 1 m/s 732 mmHg 74%
    21:00 +21°C° 0 mm 1 m/s 732 mmHg 77%
    22:00 +20°C° 0 mm 1 m/s 733 mmHg 81%
    23:00 +19°C° 0 mm 1 m/s 732 mmHg 82%

    20 Iulie, Sâmbătă

    Timp Temperatura Precipitaţii Vânt Presiune Umiditate
    00:00 +19°C° 0 mm 1 m/s 732 mmHg 83%
    01:00 +18°C° 0 mm 1 m/s 732 mmHg 84%
    02:00 +18°C° 0 mm 1 m/s 732 mmHg 85%
    03:00 +18°C° 0 mm 1 m/s 732 mmHg 85%
    04:00 +16°C° 0 mm 1 m/s 732 mmHg 86%
    05:00 +18°C° 0 mm 1 m/s 732 mmHg 83%
    06:00 +20°C° 0 mm 1 m/s 732 mmHg 80%
    07:00 +21°C° 0 mm 1 m/s 732 mmHg 78%
    08:00 +23°C° 0 mm 1 m/s 732 mmHg 70%
    09:00 +25°C° 0 mm 1 m/s 732 mmHg 62%
    10:00 +27°C° 0 mm 2 m/s 732 mmHg 55%
    11:00 +27°C° 0 mm 2 m/s 732 mmHg 52%
    12:00 +28°C° 0 mm 2 m/s 732 mmHg 49%
    13:00 +29°C° 0 mm 2 m/s 732 mmHg 46%
    14:00 +29°C° 0.1 mm 2 m/s 731 mmHg 47%
    15:00 +29°C° 0.1 mm 2 m/s 731 mmHg 48%
    16:00 +29°C° 0.1 mm 2 m/s 731 mmHg 49%
    17:00 +28°C° 0.1 mm 2 m/s 731 mmHg 55%
    18:00 +27°C° 0.1 mm 2 m/s 731 mmHg 61%
    19:00 +26°C° 0.1 mm 2 m/s 732 mmHg 67%
    20:00 +24°C° 2.2 mm 2 m/s 732 mmHg 74%
    21:00 +21°C° 2.2 mm 2 m/s 733 mmHg 81%
    22:00 +19°C° 2.2 mm 2 m/s 733 mmHg 88%
    23:00 +18°C° 0.4 mm 2 m/s 733 mmHg 89%

    21 Iulie, Duminică

    Timp Temperatura Precipitaţii Vânt Presiune Umiditate
    00:00 +18°C° 0.4 mm 2 m/s 734 mmHg 89%
    01:00 +18°C° 0.4 mm 2 m/s 734 mmHg 90%
    02:00 +17°C° 0 mm 2 m/s 734 mmHg 90%
    03:00 +17°C° 0 mm 2 m/s 734 mmHg 90%
    04:00 +18°C° 0 mm 1 m/s 734 mmHg 90%
    05:00 +19°C° 0.1 mm 1 m/s 734 mmHg 89%
    06:00 +18°C° 0.1 mm 2 m/s 734 mmHg 88%
    07:00 +19°C° 0.1 mm 2 m/s 735 mmHg 87%
    08:00 +20°C° 0.1 mm 2 m/s 735 mmHg 82%
    09:00 +23°C° 0.1 mm 2 m/s 735 mmHg 77%
    10:00 +24°C° 0.1 mm 3 m/s 736 mmHg 72%
    11:00 +25°C° 0.4 mm 3 m/s 736 mmHg 68%
    12:00 +25°C° 0.4 mm 3 m/s 736 mmHg 64%
    13:00 +26°C° 0.4 mm 3 m/s 736 mmHg 60%
    14:00 +27°C° 0.2 mm 3 m/s 736 mmHg 59%
    15:00 +27°C° 0.2 mm 3 m/s 736 mmHg 58%
    16:00 +27°C° 0.2 mm 3 m/s 736 mmHg 57%
    17:00 +26°C° 0.3 mm 3 m/s 736 mmHg 63%
    18:00 +25°C° 0.3 mm 2 m/s 737 mmHg 70%
    19:00 +24°C° 0.3 mm 2 m/s 737 mmHg 77%
    20:00 +22°C° 0 mm 1 m/s 737 mmHg 79%
    21:00 +21°C° 0 mm 1 m/s 737 mmHg 82%
    22:00 +20°C° 0 mm 1 m/s 738 mmHg 84%
    23:00 +19°C° 0 mm 1 m/s 738 mmHg 86%
    Arată mai mult